This is the latest recevied weather packets stored in our database for station/object WK1F-2. If no packets are shown the sender has not sent any weather packets the latest 10 day(s).
| Time | Temp. | Humidity | Pressure | Rain* | Wind** | Luminosity | Snow |
|---|---|---|---|---|---|---|---|
| 1777918338 | 23.33° C | 40% | 1017.6 hPa | 0 mm | - | - | - |
| 1777918038 | 23.33° C | 40% | 1017.6 hPa | 0 mm | - | - | - |
| 1777917738 | 23.33° C | 40% | 1017.6 hPa | 0 mm | - | - | - |
| 1777917438 | 23.33° C | 39% | 1017.6 hPa | 0 mm | - | - | - |
| 1777917138 | 23.33° C | 39% | 1017.8 hPa | 0 mm | - | - | - |
| 1777916838 | 23.33° C | 40% | 1017.9 hPa | 0 mm | - | - | - |
| 1777916538 | 23.33° C | 38% | 1018 hPa | 0 mm | - | - | - |
| 1777916238 | 23.33° C | 37% | 1018 hPa | 0 mm | - | - | - |
| 1777915938 | 23.33° C | 37% | 1017.9 hPa | 0 mm | - | - | - |
| 1777915638 | 23.33° C | 39% | 1018 hPa | 0 mm | - | - | - |
| 1777915338 | 23.33° C | 38% | 1018 hPa | 0 mm | - | - | - |
| 1777915038 | 23.33° C | 39% | 1018.1 hPa | 0 mm | - | - | - |
| 1777914738 | 23.33° C | 38% | 1018 hPa | 0 mm | - | - | - |
| 1777914438 | 23.33° C | 38% | 1018 hPa | 0 mm | - | - | - |
| 1777914138 | 23.33° C | 37% | 1018 hPa | 0 mm | - | - | - |
| 1777913838 | 23.33° C | 39% | 1018 hPa | 0 mm | - | - | - |
| 1777913538 | 22.78° C | 39% | 1018 hPa | 0 mm | - | - | - |
| 1777913238 | 22.78° C | 38% | 1018.1 hPa | 0 mm | - | - | - |
| 1777912938 | 23.33° C | 37% | 1018.1 hPa | 0 mm | - | - | - |
| 1777912638 | 23.33° C | 38% | 1018.1 hPa | 0 mm | - | - | - |
| 1777912338 | 22.78° C | 41% | 1018.2 hPa | 0 mm | - | - | - |
| 1777912038 | 22.78° C | 40% | 1018.3 hPa | 0 mm | - | - | - |
| 1777911738 | 22.78° C | 39% | 1018.1 hPa | 0 mm | - | - | - |
| 1777911438 | 22.78° C | 41% | 1018.1 hPa | 0 mm | - | - | - |
| 1777911138 | 22.78° C | 41% | 1018.2 hPa | 0 mm | - | - | - |
* Rain latest hour (hover to see other rain measurements)
** Current wind speed in m/s (hover to see current wind gust speed)